Showing default

OAO 2, 3597

Orbit data source: Space-Track

OAO 2, 3597 is a payload satellite owned by GSFC (US) in LEO that was launched on Sat, 07 Dec 1968 UTC via an ATLAS SLV-3C CENTAUR launch vehicle from the Air Force Eastern Test Range (AFETR). Payload-class satellites include a variety of spacecraft equipped with specific instruments for various scientific and technological missions. These include communications satellites like Starlink; space stations such as the ISS; scientific satellites like the Hubble; Earth observation satellites from companies like Planet Labs, Umbra, and HawkEye 360; GPS; miniature CubeSats for education and research; and military/defense satellites.

Loading next visibility...
Identifier
3597, 1968-110A
Orbit
LEO
Country
Flag of USUS
Related business
Manufacturer
Grummann
Mission
Spacecraft
Bus & Motor
OAO, Unknown motor
Mass
2,018 kg wet, 2,018 kg dry
Launch date (UTC)
1968-12-07 (57 years ago)
Launch vehicle
ATLAS SLV-3C CENTAUR
Launch site
Air Force Eastern Test Range (AFETR)
Object type
Payload
Rocket body
Debris
Shape & HBR
Unknown
Radar Cross Section
Large (>1 m²)

Expand to show TLE details & history
Last TLE update: 5 hours ago

TLE from 5 hours ago
0 OAO 2
1  3597U 68110A   26036.15171136  .00000394  00000-0  11136-3 0  9993
2  3597  34.9935  86.8855 0006066 294.7839  65.2220 14.47287416 14386
Epoch: 2026-02-05T03:38Z
TLE epoch observation values (Epoch: 2026-02-05T03:38:27.861Z)
Latitude
-0.00004°
Longitude
-103.0387°
Altitude
731.659 km
Speed
7.492 km/s
True Right ascension
05h 47m 32s
True Declination
0° 00' 00"
Sunlit
Object was in full shadow at epoch
Visualization orbit readout
Latitude
Unknown
Longitude
Unknown
Altitude
Unknown
Speed
Unknown
Apparent Right ascension
Unknown
Apparent Declination
Unknown
Sunlit
N/A
Visualization observer readout
Local Sidereal Time
11:05:52
Azimuth
Unknown
Elevation
Unknown
Doppler factor
Unknown
Orbital elements
Apogee altitude
741.981 km
Perigee altitude
733.348 km
Semi-major axis
7,115.802 km
Eccentricity
0.00061
Inclination
34.9935°
RAAN
86.8855°
Arg. of periapsis
294.7839°
True anomaly
65.28513°
Mean anomaly
65.222°
Eccentric anomaly
65.25356°
Mean motion
3.61583 °/min
Orbital period
99.56 mins
BSTAR
0.00011136
Loading maneuver chart data...
Computing Atmospheric mass density...
Loading historical data...
Loading historical data...
Loading historical data...
Loading historical data...
Loading historical data...
Loading historical data...
Loading historical data...
Other satellites on launch #110 in the year 1968 (1968-12-07 UTC)

Documentation

Showing up to 5 results
|